Regional Weather Roundup
Issued by NWS

Home | Current Version | Previous Version | Text Only | Print | Product List | Glossary On
Versions: 1 2 3 4 5 6 7 8 9 10 11 12 13 14 15 16 17 18 19 20 21 22 23 24 25 26 27 28 29 30 31 32 33 34 35 36 37 38 39 40 41 42 43 44 45 46 47 48 49 50
000
ASUS44 KMEG 231810
RWRTN
TENNESSEE HOURLY STATE WEATHER ROUNDUP
NATIONAL WEATHER SERVICE MEMPHIS TN
100 PM CDT WED MAY 23 2018

TNZ002-004-019-021-049-052-054-088>092-231900-
WEST TENNESSEE

CITY           SKY/WX    TMP DP  RH WIND       PRES   REMARKS
MEMPHIS INTL   PTSUNNY   86  70  58 NE6       30.09F HX  90
NWS MEMPHIS      N/A     85 N/A N/A MISG        N/A
JACKSON        FAIR      86  72  62 E8        30.11F HX  92
DYERSBURG      PTSUNNY   87  73  62 E6        30.11F HX  94
COVINGTON      MOSUNNY   84  72  65 SE6       30.10F
BOLIVAR        MOSUNNY   84  70  61 VRB6      30.10F
PARIS          MOSUNNY   84  66  54 VRB3G12   30.12F
HUNTINGDON     MOSUNNY   86  68  54 VRB5      30.10F
LEXINGTON      MOSUNNY   86  70  58 NE6       30.10F HX  90
SELMER         PTSUNNY   84  70  61 NE6       30.10F
SAVANNAH       MOSUNNY   86  70  58 N6        30.09F HX  90
$$

TNZ008-025-027-028-033-062-065-066-231900-
NORTH MIDDLE TENNESSEE

CITY           SKY/WX    TMP DP  RH WIND       PRES   REMARKS
NASHVILLE      FAIR      86  66  51 N9        30.11F
DICKSON        PTCLDY    82  66  57 VRB6G20   30.12F
PORTLAND       MOSUNNY   82  66  57 CALM      30.12F
CLARKSVILLE    FAIR      84  62  47 CALM      30.11F
SMYRNA         FAIR      84  68  58 N8        30.11F
MURFREESBORO   MOCLDY    86  64  48 N9        30.09F
COOKEVILLE     MOSUNNY   84  68  58 NW7       30.11F
LIVINGSTON     PTCLDY    81  70  69 N8        30.13S
GALLATIN       MOSUNNY   86  64  48 VRB6G12   30.13F
CROSSVILLE     PTSUNNY   80  64  58 N3        30.16F
$$

TNZ061-075-076-078-094-096-097-231900-
SOUTH MIDDLE TENNESSEE

CITY           SKY/WX    TMP DP  RH WIND       PRES   REMARKS
LEWISBURG      MOCLDY    84  68  58 VRB5      30.10F
FAYETTEVILLE   SUNNY     82  68  61 N7        30.11F
TULLAHOMA      SUNNY     82  66  57 CALM      30.11F
WINCHESTER     PTSUNNY   84  64  51 CALM      30.11F
MCMINNVILLE    PTSUNNY   81  68  65 NE6       30.12F
COLUMBIA       MOSUNNY   86  64  48 N7        30.09F
SHELBYVILLE    MOSUNNY   84  66  54 VRB5G12   30.10F
$$

TNZ017-018-042-046-047-231900-
NORTHEAST TENNESSEE

CITY           SKY/WX    TMP DP  RH WIND       PRES   REMARKS
TRI CITIES     PTSUNNY   79  67  66 CALM      30.13F
ELIZABETHTON   FAIR      79  64  61 W7        30.13F
GREENEVILLE    CLEAR     79  63  57 VRB3      30.13F
$$

TNZ012-013-036-069-073-074-231900-
CENTRAL EAST TENNESSEE

CITY           SKY/WX    TMP DP  RH WIND       PRES   REMARKS
KNOXVILLE      FAIR      83  67  58 NE6       30.10F
OAK RIDGE      FAIR      84  68  58 SE6       30.11F
DOWNTOWN KNOXV MOSUNNY   84  68  58 SE3       30.10F
GATLINBURG     MOSUNNY   82  64  54 CALM      30.10F
MORRISTOWN     PTSUNNY   81  66  61 VRB5G12   30.12F
JACKSBORO      MOSUNNY   84  68  58 SW6       30.14F
$$

TNZ083-085-099-231900-
SOUTHEAST TENNESSEE

CITY           SKY/WX    TMP DP  RH WIND       PRES   REMARKS
CHATTANOOGA    PTSUNNY   86  64  47 NE10      30.09F
DAYTON         PTCLDY    82  72  69 E6        30.09F
$$

SKY/WX REPORTED AS FAIR MEANS FEW OR NO CLOUDS BELOW
12 THOUSAND FEET.




USA.gov is the U.S. government's official web portal to all federal, state and local government web resources and services.